Weather Roundup
Issued by NWS

Home | Current Version | Previous Version | Text Only | Print | Product List | Glossary On
Versions: 1 2 3 4 5 6 7 8 9 10 11 12 13 14 15 16 17 18 19 20 21 22 23 24 25 26 27 28 29 30 31 32 33 34 35 36 37 38 39 40 41 42 43 44 45 46 47 48 49 50
000
NZUS93 KARX 110059
HRRWXR

CURRENT HOURLY OBSERVATIONS ACROSS
MUCH OF THE UPPER MISSISSIPPI VALLEY
NATIONAL WEATHER SERVICE LA CROSSE WI
800 PM CDT THU JUL 10 2014


...SOUTHEAST MINNESOTA...


CITY           SKY/WX    TMP DP  RH WIND       PRES   REMARKS
ROCHESTER      MOCLDY    74  60  61 S10       30.06S
ROCHESTER/MAYO FAIR      77  56  48 SE8       30.05S
WINONA         MOCLDY    77  61  57 S5        30.04S
AUSTIN         CLOUDY    75  57  53 S9        30.05S
ALBERT LEA     MOCLDY    79  57  47 S10       30.03S
DODGE CENTER   MOCLDY    75  61  60 S10       30.04S
PRESTON        MOCLDY    74  62  66 S7        30.07S
OWATONNA       MOCLDY    79  57  47 SE10      30.01F
FARIBAULT      MOCLDY    81  54  39 SE10      30.00S
$$

...ELSEWHERE IN MINNESOTA...


CITY           SKY/WX    TMP DP  RH WIND       PRES   REMARKS
MINNEAPOLIS    CLOUDY    81  59  47 S13       29.98R
INTNL FALLS    MOCLDY    72  57  59 VRB3      29.92S
DULUTH         MOCLDY    66  54  65 SE12      29.99F
RED WING       MOCLDY    79  59  50 S6        30.00S
REDWOOD FALLS  CLOUDY    80  63  55 S16G23    29.93S
MANKATO        CLOUDY    79  57  47 S13G18    29.99R
WORTHINGTON    CLOUDY    73  66  78 S14G20    29.96F
FAIRMONT       CLOUDY    77  57  50 S15       29.99F
$$

...SOUTHWEST WISCONSIN...


CITY           SKY/WX    TMP DP  RH WIND       PRES   REMARKS
LA CROSSE      PTCLDY    80  62  54 S9        30.05R HAZE
PRAIRIE DU CHI PTCLDY    78  58  51 SE6       30.07S
BOSCOBEL       PTCLDY    77  62  59 S3        30.08S
LONE ROCK      NOT AVBL
PLATTEVILLE    CLEAR     74  63  67 SE5       30.11F
FORT MC COY    MOCLDY    76  62  61 S6        30.08R
VIROQUA        FAIR      74  62  66 S7        30.09S
WIS DELLS      PTCLDY    73  61  65 CALM      30.10R
$$

...ELSEWHERE IN WISCONSIN...


CITY           SKY/WX    TMP DP  RH WIND       PRES   REMARKS
MILWAUKEE      PTCLDY    67  51  56 S9        30.15R
MADISON        MOCLDY    77  58  51 S9        30.11R
GREEN BAY      CLEAR     69  52  54 S14       30.12R
EAU CLAIRE     NOT AVBL
BLACK RVR FLS  FAIR      76  63  64 S3        30.05S
MEDFORD        PTCLDY    73  63  72 S6        30.08S
WAUSAU         CLEAR     74  60  61 S9        30.07R
WIS RAPIDS     PTCLDY    75  61  61 S6        30.09S
MARSHFIELD     PTCLDY    72  64  76 S7        30.08R
RICE LAKE      MOCLDY    75  63  66 SE8       30.03F
$$

...NORTHEAST IOWA...


CITY           SKY/WX    TMP DP  RH WIND       PRES   REMARKS
WATERLOO       MOCLDY    76  59  55 S10       30.06S
DUBUQUE        PTCLDY    72  63  73 S7        30.11S
DECORAH          N/A    N/A N/A N/A MISG        N/A
MASON CITY     CLOUDY    74  61  63 S8        30.07R
CHARLES CITY   MOCLDY    75  59  57 S10       30.07S
OELWEIN        PTCLDY    75  68  78 S7        30.09S
$$

...ELSEWHERE IN IOWA...


CITY           SKY/WX    TMP DP  RH WIND       PRES   REMARKS
DES MOINES     MOCLDY    78  59  51 S12       30.04S
IOWA CITY      MOCLDY    75  61  61 S6        30.11R
FORT DODGE     CLOUDY    75  61  60 S9        30.03S
MARSHALLTOWN   MOCLDY    74  61  63 SE7       30.06S
CEDAR RAPIDS   MOCLDY    73  60  63 S6        30.09R
$$

...NORTHERN ILLINOIS...


CITY           SKY/WX    TMP DP  RH WIND       PRES   REMARKS
CHICAGO-OHARE  PTCLDY    72  48  42 E9        30.15R
DUPAGE         CLEAR     73  53  49 E9        30.14R
CHICAGO-MIDWAY CLEAR     73  47  39 E9        30.15S
MOLINE         CLEAR     74  62  66 S3        30.10R
ROCKFORD       PTCLDY    74  58  57 S8        30.13S
STERLING       CLEAR     73  61  64 S5        30.13R
PEORIA         CLEAR     76  56  49 SE5       30.13R
$$

NOTE: "FAIR" INDICATES FEW OR NO CLOUDS BELOW 12,000 FEET WITH NO
SIGNIFICANT WEATHER AND/OR OBSTRUCTIONS TO VISIBILITY. WIND
SPEEDS ARE IN MILES-PER-HOUR.



USA.gov is the U.S. government's official web portal to all federal, state and local government web resources and services.